DELTA 1 DEB

Satellite information

Favourite Embed

Satellite Type and Status

DEBRISIN ORBIT

Key statistics

Satellite DELTA 1 DEB at a glance.

Uptime

17292

Days in orbit

Revolutions

≈ 14.3

Per day

Orbit

SSO

Sun Synchronous Orbit

Inclination

98.8

Latest

Satellite identification and parameters

Extended collection of information and parameters for DELTA 1 DEB.

Object identification

Identified? True

Debris? True

Object name: DELTA 1 DEB

International designator: 1978-026W

Object number (NORAD): 12181

Object ID (CCSDS): 12181

Country: UNITED STATES OF AMERICA (US)

Current information (Y/N): Y

RCS size: MEDIUM

Orbital parameters

Period: 100.947 minutes

Inclination: 98.844 deg

SMA: 7181.61 km

Apoapsis: 873.878 km

Periapsis: 733.071 km

RAAN: 189.4583 deg

Eccentricy: 0.0098033

Argument of periapsis: 200.4501 deg

Mean anomaly: 159.2742 deg

Mean motion: 14.2649441 rev/day

Mean motion (dot): 0.00000135 rev/day2

B* drag term: 0.000071329 1/REarth

Two-line elements (TLE)

Creation date: July 6, 2025, 6:05 p.m.

Reference frame: TEME

Reference center: EARTH

Epoch: July 6, 2025, 1:43 p.m. UTC

TLE line 0: 0 DELTA 1 DEB

TLE line 1: 1 12181U 78026W 25187.57176652 .00000135 00000-0 71329-4 0 9993

TLE line 2: 2 12181 98.8440 189.4583 0098033 200.4501 159.2742 14.26494410307354

Live tracking on map

Real-time ground track for satellite DELTA 1 DEB.

In-orbit conjunctions

A list of the most updated potential collisions computed for object DELTA 1 DEB.

Target Orbit TCA Probability of collision Miss distance Type
SL-3 R/B LEO 2024-12-31 11:26:28 0.006652207 21.0 (m) ROCKET BODY
SL-16 DEB LEO 2024-08-14 13:27:06 0.000308057 75.0 (m) DEBRIS

Associated space launch

Earth observation satellite

DELTA 1 DEB was lifted into orbit during the mission ‘Delta 2910 | Landsat 3’, on board a Delta 2910 space rocket.

The launch took place on March 5, 1978, 5:54 p.m. from Space Launch Complex 2W.

For more information about the launch, click the button.

Launch to space Delta 2910 | Landsat 3
Delta 2910 | Landsat 3

Agency: N/A

Status: Launch Successful

Launch date: March 5, 1978, 5:54 p.m. UTC

Rocket: Delta 2910

Launch pad: Space Launch Complex 2W

Location: Vandenberg SFB, CA, USA

...

Latest news about this satellite

There are no fresh news available about this satellite. Check back as we update our databases every day.


Newsletter sign-up

Weekly statistics, charts and insights to help you stay on top of the space industry.